Regional Weather Roundup
Issued by NWS

Home | Current Version | Previous Version | Text Only | Print | Product List | Glossary On
Versions: 1 2 3 4 5 6 7 8 9 10 11 12 13 14 15 16 17 18 19 20 21 22 23 24 25 26 27
000
ASUS45 KREV 231810
RWRNV
NEVADA REGIONAL WEATHER ROUNDUP
NATIONAL WEATHER SERVICE RENO NV
1100 AM PDT WED MAY 23 2018

NOTE: "FAIR" INDICATES FEW OR NO CLOUDS BELOW 12,000 FEET WITH NO
SIGNIFICANT WEATHER AND/OR OBSTRUCTIONS TO VISIBILITY.

NVZ001-003-004-231900-
WESTERN NEVADA

CITY           SKY/WX    TMP DP  RH WIND       PRES   REMARKS
RENO           PTSUNNY   71  46  40 SW6       29.94F
6HR MIN TEMP:  55; 6HR MAX TEMP:  71;

CARSON CITY    CLOUDY    66  48  52 SW5       29.98S
MINDEN         PTSUNNY   68  41  37 SW5       29.98S
SLIDE MTN        N/A     43  41  93 W1          N/A
FALLON         PTSUNNY   71  47  42 W8        29.93S
6HR MIN TEMP:  55; 6HR MAX TEMP:  71;

LOVELOCK       PTSUNNY   67  50  54 SE5       29.93R
6HR MIN TEMP:  56; 6HR MAX TEMP:  67; 6HR PCP: TRACE;

$$

NVZ002-CAZ072-073-231900-
NORTHERN AND CENTRAL SIERRA

CITY           SKY/WX    TMP DP  RH WIND       PRES   REMARKS
S. LAKE TAHOE  CLOUDY    60  46  59 CALM      30.03S
6HR MIN TEMP:  45; 6HR MAX TEMP:  60;

TRUCKEE        PTSUNNY   57  48  72 SE3       30.03S
SQUAW VLY 8000 NOT AVBL
BLUE CANYON    CLOUDY    58  50  75 S7        30.03R
MAMMOTH LAKES  PTSUNNY   59  40  49 E5        30.08S
6HR MIN TEMP:  44; 6HR MAX TEMP:  60;

$$

NVZ030-031-036-231900-
NORTHERN NEVADA

CITY           SKY/WX    TMP DP  RH WIND       PRES   REMARKS
ELKO           MOSUNNY   67  45  45 SW8       29.98S
6HR MIN TEMP:  44; 6HR MAX TEMP:  67;

WINNEMUCCA     PTSUNNY   71  47  42 VRB6      29.92S
6HR MIN TEMP:  52; 6HR MAX TEMP:  72;

WENDOVER       SUNNY     67  44  43 SE3       29.97S
$$

NVZ035-037-231900-
CENTRAL NEVADA

CITY           SKY/WX    TMP DP  RH WIND       PRES   REMARKS
ELY            CLOUDY    60  40  47 SW16      30.06R
6HR MIN TEMP:  45; 6HR MAX TEMP:  61; 6HR PCP: TRACE;

EUREKA           N/A     66  40  38 W8        30.01S
6HR MIN TEMP:  46; 6HR MAX TEMP:  66;

$$

NVZ013-014-231900-
SOUTH CENTRAL NEVADA

CITY           SKY/WX    TMP DP  RH WIND       PRES   REMARKS
TONOPAH        PTSUNNY   65  39  38 S6        30.03R
6HR MIN TEMP:  52; 6HR MAX TEMP:  65;

$$

NVZ017-020-022-231900-
SOUTHERN NEVADA

CITY           SKY/WX    TMP DP  RH WIND       PRES   REMARKS
LAS VEGAS      MOSUNNY   85  36  17 E7        29.89R
6HR MIN TEMP:  69; 6HR MAX TEMP:  85;

N. LAS VEGAS   SUNNY     83  32  16 S10G18    29.89R
6HR MIN TEMP:  65; 6HR MAX TEMP:  83;

NELLIS AFB     SUNNY     83  35  18 SE3       29.88R
6HR MIN TEMP:  64; 6HR MAX TEMP:  83;

HENDERSON      SUNNY     83  33  16 VRB6      29.92R
6HR MIN TEMP:  64; 6HR MAX TEMP:  84;

MERCURY        SUNNY     80  35  19 VRB5      29.92R
6HR MIN TEMP:  56; 6HR MAX TEMP:  82;

$$




USA.gov is the U.S. government's official web portal to all federal, state and local government web resources and services.